Time,TemperatureF,DewpointF,PressureIn,WindDirection,WindDirectionDegrees,WindSpeedMPH,WindSpeedGustMPH,Humidity,HourlyPrecipIn,Conditions,Clouds,dailyrainin,SolarRadiationWatts/m^2,SoftwareType,DateUTC
2013-03-10 00:11:00,42.8,38.0,29.74,SSE,162,13.0,-999.0,83,-99.99,,,0.00,0,weatherlink.com 1.10,2013-03-10 06:11:00,
2013-03-10 00:26:00,41.2,37.0,29.75,South,175,14.0,-999.0,85,-99.99,,,0.01,0,weatherlink.com 1.10,2013-03-10 06:26:00,
2013-03-10 00:41:00,42.3,38.0,29.75,South,183,19.0,-999.0,85,-99.99,,,0.03,0,weatherlink.com 1.10,2013-03-10 06:41:00,
2013-03-10 00:56:00,42.5,39.0,29.74,SSE,165,15.0,-999.0,86,-99.99,,,0.05,0,weatherlink.com 1.10,2013-03-10 06:56:00,
2013-03-10 01:11:00,41.5,39.0,29.73,SSE,157,16.0,-999.0,89,-99.99,,,0.06,0,weatherlink.com 1.10,2013-03-10 07:11:00,
2013-03-10 01:26:00,41.5,39.0,29.72,SSE,162,15.0,-999.0,91,-99.99,,,0.07,0,weatherlink.com 1.10,2013-03-10 07:26:00,
2013-03-10 01:41:00,41.6,40.0,29.71,SSE,163,18.0,-999.0,92,-99.99,,,0.08,0,weatherlink.com 1.10,2013-03-10 07:41:00,
2013-03-10 01:56:00,42.3,41.0,29.72,SSE,167,13.0,-999.0,93,-99.99,,,0.10,0,weatherlink.com 1.10,2013-03-10 07:56:00,
2013-03-10 03:11:00,41.5,40.0,29.71,South,170,15.0,-999.0,94,-99.99,,,0.15,0,weatherlink.com 1.10,2013-03-10 08:11:00,
2013-03-10 03:26:00,40.9,39.0,29.71,SSE,159,18.0,-999.0,94,-99.99,,,0.19,0,weatherlink.com 1.10,2013-03-10 08:26:00,
2013-03-10 03:41:00,41.5,40.0,29.71,SSE,157,13.0,-999.0,95,-99.99,,,0.24,0,weatherlink.com 1.10,2013-03-10 08:41:00,
2013-03-10 03:56:00,40.6,39.0,29.69,SSE,164,9.0,-999.0,95,-99.99,,,0.25,0,weatherlink.com 1.10,2013-03-10 08:56:00,
2013-03-10 04:11:00,41.3,40.0,29.69,SSE,165,15.0,-999.0,95,-99.99,,,0.26,0,weatherlink.com 1.10,2013-03-10 09:11:00,
2013-03-10 04:26:00,40.8,40.0,29.69,SSE,159,13.0,-999.0,95,-99.99,,,0.27,0,weatherlink.com 1.10,2013-03-10 09:26:00,
2013-03-10 04:41:00,41.9,41.0,29.69,SE,145,12.0,-999.0,95,-99.99,,,0.28,0,weatherlink.com 1.10,2013-03-10 09:41:00,
2013-03-10 04:56:00,41.3,40.0,29.69,SE,136,15.0,-999.0,95,-99.99,,,0.28,0,weatherlink.com 1.10,2013-03-10 09:56:00,
2013-03-10 05:11:00,40.6,39.0,29.69,SE,130,17.0,-999.0,95,-99.99,,,0.28,0,weatherlink.com 1.10,2013-03-10 10:11:00,
2013-03-10 05:26:00,39.1,38.0,29.68,ESE,115,6.0,-999.0,95,-99.99,,,0.28,0,weatherlink.com 1.10,2013-03-10 10:26:00,
2013-03-10 05:41:00,39.1,38.0,29.67,ENE,76,5.0,-999.0,95,-99.99,,,0.29,0,weatherlink.com 1.10,2013-03-10 10:41:00,
2013-03-10 05:56:00,39.1,38.0,29.64,East,97,14.0,-999.0,95,-99.99,,,0.29,0,weatherlink.com 1.10,2013-03-10 10:56:00,
2013-03-10 06:11:00,38.9,38.0,29.63,SE,136,12.0,-999.0,95,-99.99,,,0.29,0,weatherlink.com 1.10,2013-03-10 11:11:00,
2013-03-10 06:26:00,40.8,40.0,29.64,SSE,149,15.0,-999.0,96,-99.99,,,0.29,0,weatherlink.com 1.10,2013-03-10 11:26:00,
2013-03-10 06:41:00,40.8,40.0,29.66,SSE,166,2.0,-999.0,96,-99.99,,,0.29,0,weatherlink.com 1.10,2013-03-10 11:41:00,
2013-03-10 06:56:00,40.2,39.0,29.67,SSE,166,2.0,-999.0,95,-99.99,,,0.29,0,weatherlink.com 1.10,2013-03-10 11:56:00,
2013-03-10 07:11:00,40.2,39.0,29.66,SE,145,2.0,-999.0,96,-99.99,,,0.29,0,weatherlink.com 1.10,2013-03-10 12:11:00,
2013-03-10 07:26:00,39.5,38.0,29.66,NE,56,0.0,-999.0,95,-99.99,,,0.29,0,weatherlink.com 1.10,2013-03-10 12:26:00,
2013-03-10 07:41:00,40.5,40.0,29.68,NNE,19,0.0,-999.0,96,-99.99,,,0.29,5,weatherlink.com 1.10,2013-03-10 12:41:00,
2013-03-10 07:56:00,41.6,41.0,29.69,WSW,243,2.0,-999.0,96,-99.99,,,0.29,12,weatherlink.com 1.10,2013-03-10 12:56:00,
2013-03-10 08:11:00,41.2,40.0,29.71,SW,231,0.0,-999.0,96,-99.99,,,0.29,21,weatherlink.com 1.10,2013-03-10 13:11:00,
2013-03-10 08:26:00,39.8,39.0,29.71,WSW,247,3.0,-999.0,96,-99.99,,,0.29,39,weatherlink.com 1.10,2013-03-10 13:26:00,
2013-03-10 08:41:00,39.9,39.0,29.70,WSW,246,0.0,-999.0,96,-99.99,,,0.29,39,weatherlink.com 1.10,2013-03-10 13:41:00,
2013-03-10 08:56:00,39.5,39.0,29.70,SE,126,3.0,-999.0,96,-99.99,,,0.29,46,weatherlink.com 1.10,2013-03-10 13:56:00,
2013-03-10 09:11:00,39.8,39.0,29.69,East,97,3.0,-999.0,96,-99.99,,,0.29,40,weatherlink.com 1.10,2013-03-10 14:11:00,
2013-03-10 09:26:00,40.9,40.0,29.69,East,98,3.0,-999.0,96,-99.99,,,0.29,40,weatherlink.com 1.10,2013-03-10 14:26:00,
2013-03-10 09:41:00,40.8,40.0,29.69,ESE,104,2.0,-999.0,96,-99.99,,,0.29,56,weatherlink.com 1.10,2013-03-10 14:41:00,
2013-03-10 09:56:00,42.1,41.0,29.70,SE,136,2.0,-999.0,97,-99.99,,,0.29,49,weatherlink.com 1.10,2013-03-10 14:56:00,
2013-03-10 10:11:00,42.8,42.0,29.70,South,170,4.0,-999.0,97,-99.99,,,0.29,53,weatherlink.com 1.10,2013-03-10 15:11:00,
2013-03-10 10:26:00,43.5,43.0,29.69,South,173,9.0,-999.0,97,-99.99,,,0.30,42,weatherlink.com 1.10,2013-03-10 15:26:00,
2013-03-10 10:41:00,43.3,42.0,29.69,South,171,6.0,-999.0,96,-99.99,,,0.31,127,weatherlink.com 1.10,2013-03-10 15:41:00,
2013-03-10 10:56:00,43.6,43.0,29.69,SSE,150,3.0,-999.0,96,-99.99,,,0.32,137,weatherlink.com 1.10,2013-03-10 15:56:00,
2013-03-10 11:11:00,42.8,42.0,29.66,NE,54,3.0,-999.0,96,-99.99,,,0.33,186,weatherlink.com 1.10,2013-03-10 16:11:00,
2013-03-10 11:26:00,43.8,43.0,29.64,NE,53,0.0,-999.0,97,-99.99,,,0.33,54,weatherlink.com 1.10,2013-03-10 16:26:00,
2013-03-10 11:41:00,43.1,42.0,29.67,NE,54,0.0,-999.0,96,-99.99,,,0.33,28,weatherlink.com 1.10,2013-03-10 16:41:00,
2013-03-10 11:56:00,42.6,42.0,29.67,NE,54,0.0,-999.0,96,-99.99,,,0.38,63,weatherlink.com 1.10,2013-03-10 16:56:00,
2013-03-10 12:11:00,41.8,41.0,29.66,NE,55,0.0,-999.0,96,-99.99,,,0.40,69,weatherlink.com 1.10,2013-03-10 17:11:00,
2013-03-10 12:26:00,41.6,41.0,29.66,NE,55,0.0,-999.0,96,-99.99,,,0.41,49,weatherlink.com 1.10,2013-03-10 17:26:00,
2013-03-10 12:42:00,42.1,41.0,29.67,NE,55,0.0,-999.0,96,-99.99,,,0.44,37,weatherlink.com 1.10,2013-03-10 17:42:00,
2013-03-10 12:57:00,41.6,41.0,29.67,NE,55,0.0,-999.0,96,-99.99,,,0.51,42,weatherlink.com 1.10,2013-03-10 17:57:00,
2013-03-10 13:12:00,42.3,42.0,29.66,ENE,57,0.0,-999.0,97,-99.99,,,0.56,83,weatherlink.com 1.10,2013-03-10 18:12:00,
2013-03-10 13:27:00,43.1,42.0,29.65,ENE,69,4.0,-999.0,96,-99.99,,,0.59,28,weatherlink.com 1.10,2013-03-10 18:27:00,
2013-03-10 13:42:00,42.5,42.0,29.64,ENE,57,0.0,-999.0,96,-99.99,,,0.63,40,weatherlink.com 1.10,2013-03-10 18:42:00,
2013-03-10 13:57:00,43.3,43.0,29.64,ENE,57,0.0,-999.0,97,-99.99,,,0.68,51,weatherlink.com 1.10,2013-03-10 18:57:00,
2013-03-10 14:12:00,42.5,42.0,29.62,NE,55,3.0,-999.0,96,-99.99,,,0.73,49,weatherlink.com 1.10,2013-03-10 19:12:00,
2013-03-10 14:27:00,41.1,40.0,29.61,North,360,4.0,-999.0,96,-99.99,,,0.77,56,weatherlink.com 1.10,2013-03-10 19:27:00,
2013-03-10 14:42:00,40.5,40.0,29.61,NW,322,4.0,-999.0,96,-99.99,,,0.80,65,weatherlink.com 1.10,2013-03-10 19:42:00,
2013-03-10 14:57:00,40.9,40.0,29.61,NW,326,0.0,-999.0,97,-99.99,,,0.82,58,weatherlink.com 1.10,2013-03-10 19:57:00,
2013-03-10 15:12:00,41.5,41.0,29.61,NW,326,0.0,-999.0,97,-99.99,,,0.83,79,weatherlink.com 1.10,2013-03-10 20:12:00,
2013-03-10 15:27:00,41.2,40.0,29.61,NW,326,0.0,-999.0,97,-99.99,,,0.84,70,weatherlink.com 1.10,2013-03-10 20:27:00,
2013-03-10 15:42:00,40.9,40.0,29.61,NW,326,0.0,-999.0,97,-99.99,,,0.86,67,weatherlink.com 1.10,2013-03-10 20:42:00,
2013-03-10 15:57:00,41.8,41.0,29.61,NW,326,0.0,-999.0,97,-99.99,,,0.88,139,weatherlink.com 1.10,2013-03-10 20:57:00,
2013-03-10 16:12:00,41.6,41.0,29.61,North,355,1.0,-999.0,97,-99.99,,,0.88,174,weatherlink.com 1.10,2013-03-10 21:12:00,
2013-03-10 16:27:00,41.6,41.0,29.57,North,360,4.0,-999.0,97,-99.99,,,0.88,79,weatherlink.com 1.10,2013-03-10 21:27:00,
2013-03-10 16:42:00,40.8,40.0,29.53,NE,48,2.0,-999.0,97,-99.99,,,0.88,67,weatherlink.com 1.10,2013-03-10 21:42:00,
2013-03-10 16:57:00,39.9,39.0,29.55,ENE,59,6.0,-999.0,97,-99.99,,,0.88,109,weatherlink.com 1.10,2013-03-10 21:57:00,
2013-03-10 17:12:00,40.9,40.0,29.55,ENE,77,1.0,-999.0,97,-99.99,,,0.88,278,weatherlink.com 1.10,2013-03-10 22:12:00,
2013-03-10 17:27:00,41.3,41.0,29.56,East,87,4.0,-999.0,97,-99.99,,,0.88,172,weatherlink.com 1.10,2013-03-10 22:27:00,
2013-03-10 17:42:00,41.3,41.0,29.55,SE,127,6.0,-999.0,97,-99.99,,,0.88,47,weatherlink.com 1.10,2013-03-10 22:42:00,
2013-03-10 17:57:00,41.5,41.0,29.55,SSE,160,6.0,-999.0,97,-99.99,,,0.88,19,weatherlink.com 1.10,2013-03-10 22:57:00,
2013-03-10 18:12:00,41.3,41.0,29.56,South,180,8.0,-999.0,97,-99.99,,,0.88,5,weatherlink.com 1.10,2013-03-10 23:12:00,
2013-03-10 18:27:00,40.3,40.0,29.57,SW,215,9.0,-999.0,97,-99.99,,,0.90,5,weatherlink.com 1.10,2013-03-10 23:27:00,
2013-03-10 18:42:00,39.9,39.0,29.58,SW,229,6.0,-999.0,97,-99.99,,,0.91,0,weatherlink.com 1.10,2013-03-10 23:42:00,
2013-03-10 18:57:00,40.3,40.0,29.58,SW,229,5.0,-999.0,97,-99.99,,,0.93,0,weatherlink.com 1.10,2013-03-10 23:57:00,
2013-03-10 19:12:00,39.3,39.0,29.58,SW,229,4.0,-999.0,97,-99.99,,,0.95,0,weatherlink.com 1.10,2013-03-11 00:12:00,
2013-03-10 19:27:00,39.3,39.0,29.59,SW,229,3.0,-999.0,97,-99.99,,,0.96,0,weatherlink.com 1.10,2013-03-11 00:27:00,
2013-03-10 19:42:00,38.9,38.0,29.59,SW,229,3.0,-999.0,97,-99.99,,,0.96,0,weatherlink.com 1.10,2013-03-11 00:42:00,
2013-03-10 19:57:00,38.8,38.0,29.59,SW,229,5.0,-999.0,97,-99.99,,,0.96,0,weatherlink.com 1.10,2013-03-11 00:57:00,
2013-03-10 20:12:00,38.9,38.0,29.59,SW,228,5.0,-999.0,97,-99.99,,,0.97,0,weatherlink.com 1.10,2013-03-11 01:12:00,
2013-03-10 20:27:00,39.8,39.0,29.60,SSW,209,7.0,-999.0,98,-99.99,,,0.98,0,weatherlink.com 1.10,2013-03-11 01:27:00,
2013-03-10 20:42:00,40.5,40.0,29.60,SSW,204,9.0,-999.0,98,-99.99,,,1.00,0,weatherlink.com 1.10,2013-03-11 01:42:00,
2013-03-10 20:57:00,40.8,40.0,29.59,SSW,199,7.0,-999.0,98,-99.99,,,1.00,0,weatherlink.com 1.10,2013-03-11 01:57:00,
2013-03-10 21:12:00,40.2,40.0,29.59,SW,214,7.0,-999.0,98,-99.99,,,1.00,0,weatherlink.com 1.10,2013-03-11 02:12:00,
2013-03-10 21:27:00,39.6,39.0,29.59,SSW,206,7.0,-999.0,97,-99.99,,,1.00,0,weatherlink.com 1.10,2013-03-11 02:27:00,
2013-03-10 21:42:00,39.9,39.0,29.59,SW,225,9.0,-999.0,98,-99.99,,,1.00,0,weatherlink.com 1.10,2013-03-11 02:42:00,
2013-03-10 21:57:00,40.6,40.0,29.59,SW,219,12.0,-999.0,98,-99.99,,,1.00,0,weatherlink.com 1.10,2013-03-11 02:57:00,
2013-03-10 22:12:00,40.5,40.0,29.60,SW,219,7.0,-999.0,98,-99.99,,,1.00,0,weatherlink.com 1.10,2013-03-11 03:12:00,
2013-03-10 22:27:00,39.9,39.0,29.60,SSW,213,10.0,-999.0,98,-99.99,,,1.00,0,weatherlink.com 1.10,2013-03-11 03:27:00,
2013-03-10 22:42:00,39.6,39.0,29.61,SW,214,6.0,-999.0,98,-99.99,,,1.00,0,weatherlink.com 1.10,2013-03-11 03:42:00,
2013-03-10 22:57:00,39.6,39.0,29.61,SW,225,7.0,-999.0,98,-99.99,,,1.00,0,weatherlink.com 1.10,2013-03-11 03:57:00,
2013-03-10 23:12:00,39.3,39.0,29.61,SW,221,5.0,-999.0,98,-99.99,,,1.00,0,weatherlink.com 1.10,2013-03-11 04:12:00,
2013-03-10 23:27:00,38.6,38.0,29.61,SW,234,5.0,-999.0,98,-99.99,,,1.00,0,weatherlink.com 1.10,2013-03-11 04:27:00,
2013-03-10 23:42:00,38.6,38.0,29.61,WSW,243,5.0,-999.0,98,-99.99,,,1.00,0,weatherlink.com 1.10,2013-03-11 04:42:00,
2013-03-10 23:57:00,37.8,37.0,29.61,WSW,243,4.0,-999.0,98,-99.99,,,1.00,0,weatherlink.com 1.10,2013-03-11 04:57:00,